Temperature
18 18 18 18 18 18 18 18 18 18 18 18 18 18 18 18 18 18 18 18 18 18 18 17 17 17 17 17 17 17 16 16 16 16 16 16 16 16 16 16 16 16 16
18 18 18 18 18 18 18 18 18 18 18 18 18 18 18 18 17 17 18 18 18 18 17 17 17 17 17 17 17 17 17 17 16 16 16 16 16 16 16 16 16 16 16
18 18 18 18 18 18 18 18 18 18 18 18 18 18 18 18 17 17 17 17 18 17 17 17 17 17 17 17 17 17 17 17 16 16 16 16 16 16 16 16 16 16 16
18 18 18 18 18 18 18 18 18 18 18 18 18 18 18 18 17 17 17 17 17 17 17 17 17 17 17 17 17 17 17 17 16 16 16 16 16 16 16 16 16 16 16
18 18 18 18 18 18 18 18 18 18 18 18 18 18 18 18 17 17 17 17 17 17 17 17 17 17 17 17 17 17 17 17 16 16 16 16 16 16 16 16 16 16 16
18 18 18 18 18 18 18 18 18 18 18 18 18 18 18 18 18 17 17 17 17 17 17 17 17 17 17 17 17 17 17 16 16 16 16 16 16 16 16 16 16 16 16
18 18 17 18 18 18 18 18 17 17 18 18 18 18 18 18 18 18 17 17 17 17 17 17 17 17 17 17 17 17 16 16 16 16 16 16 16 16 16 16 16 16 16
17 18 17 17 18 17 17 17 17 17 18 18 18 18 18 18 18 18 18 18 17 17 17 17 17 17 17 17 17 16 16 16 16 16 16 16 16 16 16 16 16 16 16
17 17 17 17 17 17 17 17 17 17 17 18 18 18 18 18 18 18 18 18 18 17 17 17 17 17 17 16 16 16 16 16 16 16 16 16 16 16 16 16 16 16 16
17 17 17 17 17 17 17 17 17 17 17 18 18 18 18 18 18 18 18 18 18 18 17 17 17 17 17 17 16 16 16 16 16 16 16 16 16 16 16 16 16 16 15
17 17 17 17 17 17 17 17 17 17 17 17 18 18 18 18 18 18 18 18 18 18 18 18 17 17 17 17 16 16 16 16 16 16 16 16 15 15 15 15 15 15 15
17 17 16 17 17 17 16 16 16 17 17 17 17 18 18 18 18 19 19 19 18 18 18 18 17 17 17 17 17 17 16 16 16 16 16 16 15 15 15 15 15 15 15
17 17 17 17 16 16 16 16 16 16 17 17 17 17 18 18 18 18 18 19 19 18 18 18 18 18 17 17 17 17 17 16 16 16 16 16 16 15 15 15 15 15 15
17 17 17 17 16 16 16 16 16 16 16 16 17 17 17 17 18 18 18 18 18 18 18 18 18 18 17 17 17 17 17 16 16 16 16 16 16 16 15 15 15 15 15
17 17 17 17 16 16 16 16 16 16 16 16 16 17 17 17 17 17 18 18 18 18 18 18 18 18 18 17 17 17 16 16 16 16 16 16 16 16 16 15 15 15 15
17 17 17 16 16 16 16 16 16 16 16 16 16 16 16 17 17 17 17 17 17 17 17 18 18 18 18 17 17 16 16 16 16 16 16 16 16 16 16 16 15 15 15
17 17 16 16 16 16 16 16 16 16 16 16 16 16 16 16 16 16 16 16 17 17 17 17 17 17 17 17 17 16 16 16 16 16 16 16 16 16 16 16 16 16 15
17 17 16 16 16 16 16 16 16 16 16 16 16 16 16 16 16 16 16 16 16 16 16 16 16 16 16 16 16 16 16 15 15 15 15 16 16 15 15 15 15 15 15
16 16 16 16 16 16 16 16 16 16 16 15 15 15 15 15 15 15 15 15 15 15 15 15 15 15 15 15 15 15 15 15 15 15 15 15 15 15 15 15 15 15 15
16 16 16 16 16 16 16 15 15 15 15 15 15 15 15 15 14 14 14 14 14 14 14 14 14 14 14 14 14 14 14 14 14 14 14 14 14 15 15 14 14 14 14
16 16 16 16 15 15 15 15 15 15 15 14 14 14 14 14 14 14 14 13 13 13 13 13 13 13 13 13 13 13 13 13 13 13 13 14 14 14 14 14 14 14 14
16 15 15 15 15 15 15 15 14 14 14 14 14 13 13 13 13 13 13 13 12 12 12 12 12 12 12 12 12 12 12 12 12 12 12 13 13 13 13 13 13 13 13
15 15 15 14 14 14 14 14 14 14 13 13 13 13 12 12 12 12 12 12 12 11 11 11 11 11 11 11 11 11 11 11 11 11 11 12 12 12 12 12 12 12 12
14 14 14 14 14 13 13 13 13 13 12 12 12 12 11 11 11 11 11 11 10 10 10 10 10 10 10 10 10 9 9 9 10 10 10 10 11 11 11 11 11 11 11
13 13 13 13 13 12 12 12 12 12 11 11 11 11 11 10 10 10 10 10 10 9 9 9 9 9 9 9 9 9 8 8 8 9 9 9 9 9 10 10 10 10 10
13 12 12 12 12 12 11 11 11 11 11 10 10 10 10 9 9 9 9 9 9 9 9 9 9 9 8 8 8 8 7 7 7 7 8 8 8 8 8 8 9 9 9
Wind_Speed
2 3 2 3 4 7 7 4 3 2 2 3 4 4 3 5 9 12 13 15 15 13 13 12 11 10 10 9 8 8 9 9 9 9 9 9 9 8 7 7 6 6 5
3 2 2 1 1 3 4 2 3 3 2 2 2 2 3 4 7 12 13 13 14 14 13 12 12 11 11 10 9 9 9 9 9 9 9 9 9 8 7 7 7 6 6
6 2 3 2 1 4 4 2 3 2 3 4 3 3 3 3 5 9 12 12 12 13 13 13 12 11 11 11 10 10 10 10 11 11 10 9 9 9 8 8 7 7 6
6 2 2 2 2 3 3 3 2 3 2 3 3 3 3 3 4 7 9 11 12 11 12 13 12 12 12 11 11 11 11 11 12 12 11 11 11 10 10 9 9 8 7
7 3 2 3 2 2 2 2 2 1 1 2 3 3 3 3 3 5 5 8 10 11 11 13 14 13 13 13 13 12 12 12 12 13 13 12 12 12 12 11 10 10 9
5 2 3 3 2 1 2 3 3 1 0 1 2 4 4 4 3 3 4 7 10 11 12 13 13 13 14 14 14 14 14 13 13 14 14 14 14 13 14 13 13 12 12
5 1 2 3 1 2 3 3 2 2 2 1 1 2 3 5 5 4 3 4 6 9 11 14 14 13 13 17 16 16 15 15 15 15 15 15 15 15 15 15 15 15 14
6 5 2 3 2 3 2 2 2 1 3 3 1 1 2 2 4 6 5 5 6 6 8 12 13 13 12 13 15 18 17 16 15 15 16 16 15 16 16 17 17 17 16
5 3 4 1 2 2 4 2 1 2 2 1 2 1 1 1 2 2 5 5 5 4 4 7 11 13 14 13 15 18 18 17 16 15 15 16 16 16 17 17 17 18 18
5 5 4 2 1 1 4 3 3 1 1 2 1 2 1 1 0 1 2 4 6 6 5 5 6 11 13 11 13 16 19 19 17 16 15 16 16 16 16 17 17 17 18
4 5 5 4 2 0 3 3 3 1 1 2 2 1 2 2 3 2 2 3 4 5 5 5 4 7 11 11 13 16 20 20 18 16 15 15 15 16 15 16 16 16 17
4 5 6 4 3 2 3 2 1 1 1 3 3 3 1 1 2 2 1 3 4 4 5 5 4 5 10 12 13 16 20 20 18 16 15 15 14 15 15 15 15 15 16
5 6 6 4 3 3 3 2 2 1 2 1 2 4 3 2 2 2 1 1 1 2 3 4 5 6 9 9 12 18 20 19 18 17 16 15 15 15 15 15 15 15 15
6 7 6 5 3 4 4 3 2 4 2 1 3 2 4 3 3 2 2 2 2 2 3 5 4 5 7 9 13 18 16 20 19 18 17 16 16 16 16 16 16 15 15
7 8 7 6 5 4 2 3 2 2 3 3 3 3 3 3 3 3 3 2 1 2 3 3 2 4 6 8 13 14 12 19 20 19 19 19 19 18 18 18 17 17 17
5 8 7 6 5 4 4 3 3 2 2 3 2 2 2 3 3 2 2 2 2 2 3 2 1 1 2 4 12 10 9 13 20 21 21 21 21 21 21 20 20 20 19
6 6 6 5 5 4 4 4 4 3 4 3 3 2 2 3 3 4 3 3 3 2 3 4 2 1 1 0 3 5 8 9 13 20 23 23 23 23 23 22 22 22 21
4 5 4 4 3 3 3 3 4 3 2 2 2 2 2 2 2 3 4 4 3 3 3 4 4 3 2 2 2 4 6 10 10 14 23 25 24 24 24 24 23 24 23
3 3 4 3 2 1 1 1 2 1 0 0 1 0 1 2 2 2 2 4 4 4 3 3 5 4 3 3 3 4 6 5 11 13 13 19 21 22 23 25 25 25 25
4 3 3 3 3 3 3 2 1 1 2 3 4 4 4 4 4 4 3 4 5 5 5 4 5 4 4 4 3 3 5 4 6 9 9 10 15 20 23 25 24 24 24
5 4 4 4 4 4 4 3 2 3 3 4 5 5 6 7 8 6 4 5 5 4 5 5 5 5 4 5 4 4 5 5 5 5 5 6 6 6 10 17 20 22 24
6 7 7 7 8 7 8 9 6 4 5 5 5 4 5 7 7 7 6 5 4 4 4 4 4 5 6 6 5 6 5 5 5 4 5 7 6 7 6 12 15 19 19
8 9 9 10 11 11 12 12 10 6 6 6 6 5 6 9 10 8 6 4 3 2 2 3 4 5 5 5 5 6 6 7 7 7 8 9 8 9 8 15 15 15 17
10 10 11 12 11 12 13 13 10 5 6 6 7 7 7 8 9 9 7 7 6 5 3 3 3 4 5 4 4 5 7 8 8 8 7 8 8 8 9 9 15 15 15
11 11 11 11 11 11 14 14 10 4 5 5 7 8 8 8 9 11 7 7 7 6 7 8 8 9 12 13 9 5 6 6 7 7 5 5 6 7 6 6 12 17 17
10 11 11 10 11 10 13 15 12 6 5 4 6 8 11 9 8 9 6 6 6 7 9 11 9 11 10 10 11 7 5 6 6 6 5 6 7 7 6 5 5 9 13
Wind_Direction
141 131 133 154 194 167 167 181 190 143 147 198 195 168 120 101 125 134 146 153 152 156 160 164 168 170 171 172 175 176 174 171 169 170 169 168 166 165 165 165 161 161 160
120 128 134 109 171 133 125 160 152 158 190 197 206 137 133 132 128 135 147 158 161 164 168 173 177 179 181 181 183 186 185 182 180 179 179 180 178 178 180 180 178 178 177
126 136 142 177 164 133 139 169 154 179 195 184 177 146 140 128 133 144 153 163 167 171 176 181 184 188 190 191 193 195 195 192 190 190 190 191 192 192 192 192 192 191 191
142 167 170 151 143 160 165 170 189 194 192 158 173 172 141 140 148 159 163 166 165 172 182 188 190 194 198 199 202 204 203 201 200 200 201 202 202 203 204 203 203 203 204
154 184 123 114 191 198 179 177 131 94 152 170 169 149 147 158 156 182 172 165 167 172 179 191 197 200 203 206 209 211 210 209 209 209 209 210 210 211 212 213 214 215 216
156 163 142 138 230 169 113 81 96 99 322 214 195 157 167 166 174 180 176 169 175 181 183 184 193 206 211 213 213 214 215 215 215 216 216 217 218 218 219 220 222 224 225
140 168 121 139 238 94 101 120 116 172 224 209 142 156 178 180 177 179 185 169 181 186 176 177 188 198 205 217 218 217 217 218 218 218 219 221 222 222 224 225 227 229 230
157 175 125 165 135 107 106 103 106 339 230 173 163 168 176 188 194 194 178 186 184 181 183 188 192 191 197 199 213 216 217 218 219 220 223 225 226 226 228 230 231 232 234
155 109 127 119 128 168 142 174 155 211 308 190 182 170 146 183 193 188 195 180 165 177 194 191 192 189 197 197 202 212 216 219 221 222 225 227 229 231 232 233 234 235 236
159 144 137 115 96 69 129 194 168 227 273 291 200 166 159 128 128 168 218 182 176 185 198 198 196 185 195 191 192 197 209 215 219 223 225 227 229 231 234 236 236 237 238
170 152 142 138 143 131 115 79 87 14 330 311 314 211 191 190 231 197 199 187 193 189 191 195 190 190 193 189 190 196 200 207 213 219 224 228 231 232 233 236 238 239 240
176 161 149 151 172 170 122 119 105 205 345 351 339 334 324 234 249 241 208 199 203 196 183 185 185 188 193 198 201 192 194 201 207 214 221 225 228 229 231 234 237 240 241
170 161 155 162 181 148 149 155 160 271 199 269 315 317 331 321 324 326 327 282 237 183 174 190 194 192 205 186 175 180 191 198 204 212 219 224 227 229 230 232 234 237 240
156 149 151 168 181 177 184 163 201 202 198 221 259 295 321 317 329 328 322 330 313 264 207 206 191 190 201 177 181 183 193 199 205 211 218 223 227 230 231 232 234 236 239
150 156 163 170 180 190 185 154 236 217 155 209 244 227 257 286 286 306 322 329 304 297 282 238 199 188 178 166 172 189 199 203 210 216 220 225 228 231 233 234 236 239 241
136 153 166 173 179 179 182 199 223 201 200 230 257 289 263 300 319 307 305 309 300 285 288 301 269 212 150 179 176 200 220 213 215 221 225 228 231 233 235 236 239 241 244
154 159 169 176 181 186 184 197 241 201 209 234 253 249 250 284 320 329 323 307 299 302 285 292 297 323 135 192 160 226 243 229 223 227 230 231 232 234 236 239 241 243 245
160 165 168 170 182 183 175 190 234 229 206 220 245 263 266 262 264 307 325 328 329 325 311 303 313 327 322 264 234 245 262 262 253 242 231 231 232 235 239 241 243 245 246
161 153 150 150 148 134 138 176 200 232 204 274 311 325 345 352 342 335 326 329 328 323 330 308 298 302 297 292 288 273 276 284 287 282 253 238 239 242 245 246 246 246 247
152 137 127 118 110 90 69 52 63 64 63 53 47 49 43 40 19 350 349 353 340 331 323 308 296 295 293 301 301 287 288 286 285 288 291 269 251 247 248 249 250 252 253
140 124 112 103 96 80 51 46 53 91 84 68 61 61 61 61 51 34 22 10 359 347 335 327 317 318 327 340 332 322 308 310 298 293 303 298 286 269 262 257 257 258 257
108 100 92 84 71 58 43 49 51 65 77 76 74 74 79 61 47 42 35 28 19 354 348 335 327 332 335 341 343 331 327 322 308 323 334 311 305 296 283 274 261 255 255
104 97 91 85 74 51 43 47 47 58 71 68 63 52 49 52 37 23 11 5 8 347 286 307 314 321 324 347 349 332 324 313 297 299 302 290 285 283 280 283 284 277 264
99 95 91 87 79 55 42 42 37 60 77 75 72 68 71 57 36 17 6 7 355 352 325 296 317 319 320 328 309 294 290 289 277 271 262 272 276 275 282 291 296 294 285
99 97 94 91 82 56 40 36 29 54 76 79 79 66 72 66 36 19 11 1 353 349 346 344 317 293 284 279 272 286 292 299 300 302 313 309 312 314 307 303 299 300 297
101 99 94 90 86 70 48 40 29 40 49 59 91 82 68 62 39 24 10 354 348 345 335 324 311 295 282 275 263 241 268 294 304 305 327 336 324 324 309 298 307 315 312
Height
1550 1551 1552 1553 1554 1555 1556 1557 1559 1560 1561 1562 1564 1565 1566 1567 1568 1568 1569 1570 1572 1573 1575 1576 1578 1580 1581 1583 1584 1586 1587 1589 1590 1591 1592 1594 1595 1596 1597 1598 1599 1599 1600
1549 1550 1551 1553 1554 1555 1556 1557 1558 1560 1561 1562 1563 1564 1565 1567 1568 1568 1569 1570 1572 1573 1574 1576 1578 1579 1581 1583 1584 1585 1587 1588 1590 1591 1592 1593 1594 1595 1596 1597 1598 1599 1600
1547 1549 1551 1552 1553 1554 1555 1556 1558 1559 1560 1562 1563 1564 1565 1566 1567 1568 1568 1570 1571 1572 1574 1576 1577 1579 1580 1582 1583 1585 1586 1587 1589 1590 1591 1592 1593 1594 1595 1597 1597 1598 1599
1546 1548 1550 1552 1553 1554 1555 1556 1557 1558 1560 1561 1562 1563 1564 1565 1566 1567 1568 1569 1571 1572 1573 1575 1576 1578 1579 1580 1582 1584 1585 1586 1588 1589 1590 1591 1592 1593 1594 1595 1596 1597 1598
1546 1548 1550 1550 1552 1554 1555 1556 1556 1558 1559 1560 1561 1562 1563 1564 1565 1566 1567 1569 1570 1571 1572 1574 1575 1577 1578 1579 1581 1582 1583 1585 1586 1587 1588 1590 1591 1592 1593 1594 1595 1596 1597
1545 1547 1549 1550 1552 1553 1554 1555 1555 1557 1558 1559 1561 1562 1562 1563 1564 1566 1567 1568 1569 1570 1571 1572 1574 1575 1577 1578 1579 1580 1582 1583 1584 1585 1586 1588 1589 1590 1591 1592 1593 1594 1595
1544 1546 1548 1549 1551 1552 1553 1554 1555 1556 1558 1559 1560 1562 1563 1563 1564 1565 1566 1567 1568 1569 1570 1571 1572 1574 1575 1576 1577 1578 1579 1581 1582 1583 1584 1585 1586 1587 1588 1589 1590 1591 1592
1544 1546 1547 1548 1550 1551 1552 1553 1554 1556 1558 1559 1560 1561 1562 1564 1563 1564 1565 1566 1567 1568 1569 1570 1571 1572 1573 1574 1575 1576 1577 1578 1580 1581 1582 1583 1584 1584 1585 1586 1587 1588 1589
1543 1545 1546 1548 1549 1550 1551 1553 1554 1555 1557 1559 1560 1561 1561 1561 1562 1564 1564 1565 1566 1567 1569 1570 1570 1571 1572 1572 1573 1574 1575 1576 1577 1578 1579 1580 1581 1581 1582 1583 1584 1585 1586
1542 1543 1545 1546 1548 1550 1551 1552 1553 1555 1556 1558 1559 1560 1561 1561 1562 1563 1564 1565 1565 1566 1567 1568 1569 1569 1570 1571 1571 1572 1573 1574 1575 1575 1576 1577 1577 1578 1579 1579 1580 1581 1582
1540 1542 1544 1545 1547 1549 1550 1551 1552 1554 1556 1557 1558 1559 1560 1560 1561 1562 1563 1564 1564 1565 1566 1567 1568 1568 1568 1569 1569 1570 1571 1571 1572 1573 1573 1574 1574 1575 1575 1576 1576 1577 1578
1539 1541 1543 1544 1546 1548 1549 1550 1551 1553 1554 1555 1556 1558 1559 1560 1560 1561 1561 1562 1562 1563 1564 1565 1566 1566 1567 1567 1567 1568 1568 1569 1569 1570 1570 1570 1571 1571 1572 1572 1573 1573 1574
1538 1540 1542 1543 1545 1547 1548 1549 1550 1552 1553 1554 1555 1556 1557 1559 1559 1560 1560 1560 1561 1561 1562 1563 1563 1564 1565 1565 1565 1566 1566 1566 1567 1567 1567 1567 1567 1568 1568 1568 1569 1569 1569
1537 1539 1541 1542 1544 1546 1548 1548 1550 1551 1552 1553 1554 1555 1556 1557 1558 1559 1559 1560 1560 1560 1560 1560 1560 1561 1562 1563 1563 1563 1563 1564 1564 1564 1564 1564 1564 1564 1564 1564 1565 1565 1565
1536 1538 1539 1541 1543 1545 1547 1548 1549 1550 1551 1552 1553 1554 1555 1556 1557 1557 1558 1558 1559 1558 1558 1558 1559 1559 1559 1560 1560 1560 1560 1560 1560 1560 1560 1560 1560 1560 1560 1560 1560 1560 1560
1535 1536 1539 1541 1542 1544 1545 1547 1548 1549 1550 1551 1552 1552 1553 1554 1554 1555 1556 1556 1556 1557 1556 1556 1557 1557 1557 1557 1557 1557 1557 1557 1556 1556 1556 1556 1556 1555 1555 1555 1555 1555 1555
1533 1535 1537 1539 1541 1542 1544 1545 1547 1548 1548 1549 1550 1550 1551 1552 1552 1553 1553 1554 1554 1554 1554 1553 1554 1554 1554 1554 1554 1553 1553 1553 1552 1551 1551 1551 1551 1551 1550 1550 1550 1550 1549
1532 1534 1536 1538 1539 1541 1542 1544 1545 1546 1546 1547 1548 1548 1549 1549 1549 1550 1550 1550 1551 1551 1551 1550 1550 1550 1550 1550 1550 1549 1549 1548 1548 1547 1546 1546 1545 1545 1545 1544 1544 1543 1543
1530 1532 1534 1535 1537 1539 1540 1541 1543 1543 1544 1545 1546 1546 1546 1546 1546 1547 1547 1547 1547 1547 1547 1546 1546 1546 1546 1546 1545 1544 1544 1543 1543 1542 1541 1540 1539 1539 1538 1538 1537 1537 1536
1528 1530 1532 1533 1535 1536 1537 1539 1540 1541 1542 1542 1543 1543 1543 1543 1543 1543 1543 1543 1543 1543 1543 1542 1542 1542 1541 1541 1540 1539 1538 1537 1537 1536 1535 1534 1533 1532 1531 1531 1530 1529 1529
1526 1528 1530 1531 1533 1534 1535 1536 1538 1539 1539 1540 1540 1540 1540 1540 1540 1540 1540 1540 1539 1539 1539 1538 1537 1537 1536 1535 1534 1533 1532 1531 1530 1530 1528 1528 1527 1525 1524 1523 1522 1522 1521
1525 1526 1528 1530 1531 1532 1534 1534 1536 1537 1537 1538 1538 1538 1538 1538 1537 1537 1537 1537 1536 1536 1535 1534 1533 1532 1531 1530 1529 1528 1527 1525 1524 1524 1522 1520 1519 1517 1517 1516 1515 1514 1513
1523 1525 1527 1528 1530 1531 1533 1534 1534 1535 1536 1536 1536 1536 1536 1535 1535 1535 1534 1533 1533 1532 1531 1531 1529 1528 1527 1526 1524 1523 1522 1520 1518 1517 1516 1512 1512 1510 1509 1508 1508 1506 1505
1522 1524 1526 1527 1529 1531 1532 1533 1533 1534 1534 1534 1535 1535 1534 1534 1533 1532 1531 1530 1530 1529 1528 1526 1526 1524 1523 1521 1520 1518 1516 1514 1512 1511 1511 1507 1505 1504 1502 1501 1500 1499 1498
1521 1523 1525 1527 1529 1531 1532 1533 1533 1534 1534 1534 1533 1533 1532 1532 1531 1530 1529 1527 1526 1525 1525 1523 1521 1520 1519 1517 1516 1514 1512 1509 1507 1507 1506 1503 1500 1497 1495 1493 1493 1492 1491
1522 1524 1526 1528 1530 1531 1532 1533 1533 1533 1533 1533 1533 1532 1531 1530 1529 1528 1526 1525 1523 1522 1520 1519 1518 1516 1515 1514 1512 1510 1508 1506 1504 1502 1501 1499 1495 1492 1488 1487 1486 1485 1483